Flag for Cote d'Ivoire (Ivory Coast) Weather past 2 weeks in Abidjan, Cote d'Ivoire (Ivory Coast)

Now
77 °F

Passing clouds.


Feels Like: 78 °F
Forecast: 76 / 80 °F
Wind: 8 mph from Southwest

Location: Abidjan Airport

Current Time: Jul 29, 2014 at 12:44:31 AM

Latest Report: Jul 29, 2014 at 12:00 AM


Visibility: N/A

Pressure: 29.92 "Hg

Humidity: 89%

Dew point: 73 °F

Location of AbidjanLocation

Historic Weather in Abidjan — Graph

°F

Abidjan temperature yesterday

Maximum temperature yesterday: 82 °F (at 11:30 AM)
Minimum temperature yesterday: 77 °F (at 12:00 AM)
Average temperature yesterday: 79 °F

Past Weeks' High & Low Weather Summary

 TemperatureHumidityPressure
High84 °F (Jul 14, 12:00 PM)100% (Jul 16, 11:30 AM)30.04 "Hg (Jul 16, 11:30 AM)
Low70 °F (Jul 16, 11:30 AM)70% (Jul 14, 12:00 PM)29.86 "Hg (Jul 23, 3:00 PM)
Average78 °F89%29.95 "Hg
* Reported Midnight between Jul 13 and Jul 14 — Midnight between Jul 28 and Jul 29, Abidjan, Weather by CustomWeather, © 2014

Note: Actual official high and low records may vary slightly from our data, if they occured in-between our weather recording intervals... More about our weather records

Advertising

Abidjan weather history for previous 24 hours

 ConditionsComfort  
Time TempWeatherWind HumidityBarometerVisibility
12:00 AM
Jul 29
77 °FPassing clouds.8 mph89%29.92 "HgN/A
11:30 PM
Jul 28
77 °FPassing clouds.9 mph89%29.95 "HgN/A
11:00 PM77 °FPassing clouds.9 mph89%29.98 "HgN/A
10:30 PM77 °FPassing clouds.8 mph89%29.95 "HgN/A
10:00 PM77 °FPassing clouds.8 mph89%29.95 "HgN/A
9:30 PM77 °FPassing clouds.7 mph89%29.95 "HgN/A
9:00 PM77 °FPassing clouds.7 mph89%29.98 "HgN/A
8:30 PM77 °FPartly cloudy.8 mph89%29.92 "HgN/A
8:00 PM79 °FPartly cloudy.9 mph84%29.92 "HgN/A
7:30 PM79 °FPartly cloudy.7 mph79%29.89 "HgN/A
7:00 PM79 °FPartly cloudy.7 mph84%29.89 "HgN/A
6:30 PM79 °FBroken clouds.8 mph84%29.89 "HgN/A
6:00 PM79 °FBroken clouds.8 mph84%29.89 "HgN/A
5:30 PM79 °FBroken clouds.12 mph84%29.89 "HgN/A
5:00 PM79 °FMore clouds than sun.13 mph84%29.89 "HgN/A
4:30 PM81 °FBroken clouds.12 mph79%29.86 "HgN/A
4:00 PM81 °FBroken clouds.13 mph79%29.86 "HgN/A
3:30 PM81 °FBroken clouds.13 mph79%29.86 "HgN/A
3:00 PM81 °FBroken clouds.12 mph79%29.89 "HgN/A
2:30 PM81 °FBroken clouds.12 mph79%29.89 "HgN/A
2:00 PM81 °FBroken clouds.14 mph79%29.89 "HgN/A
1:30 PM81 °FBroken clouds.14 mph79%29.92 "HgN/A
1:00 PM82 °FPartly sunny.12 mph74%29.92 "HgN/A
12:30 PM82 °FPartly sunny.12 mph74%29.92 "HgN/A
12:00 PM82 °FPartly sunny.10 mph74%29.95 "HgN/A
11:30 AM82 °FScattered clouds.13 mph74%29.95 "HgN/A
11:00 AM81 °FPartly sunny.13 mph79%29.95 "HgN/A
10:30 AM81 °FPartly sunny.13 mph79%29.95 "HgN/A
10:00 AM81 °FBroken clouds.10 mph79%29.95 "Hg5 mi
9:30 AM79 °FBroken clouds.10 mph84%29.95 "Hg5 mi
9:00 AM79 °FBroken clouds.12 mph84%29.95 "Hg5 mi
8:30 AM79 °FBroken clouds.10 mph84%29.95 "Hg5 mi
8:00 AM79 °FBroken clouds.10 mph84%29.95 "Hg5 mi
7:30 AM77 °FBroken clouds.10 mph89%29.92 "Hg5 mi
7:00 AM77 °FBroken clouds.9 mph89%29.92 "Hg5 mi
6:30 AM77 °FPartly sunny.10 mph89%29.92 "Hg4 mi
6:00 AM77 °FPassing clouds.10 mph89%29.89 "Hg4 mi
5:30 AM77 °FPassing clouds.9 mph89%29.89 "Hg5 mi
5:00 AM77 °FPassing clouds.10 mph89%29.89 "Hg5 mi
4:30 AM77 °FPassing clouds.10 mph89%29.89 "Hg5 mi
4:00 AM77 °FPartly cloudy.12 mph89%29.86 "Hg5 mi
3:30 AM77 °FPartly cloudy.12 mph89%29.86 "Hg5 mi
2:30 AM77 °FPartly cloudy.12 mph89%29.86 "Hg5 mi
2:00 AM77 °FPartly cloudy.10 mph89%29.89 "Hg5 mi
1:30 AM77 °FPartly cloudy.10 mph89%29.89 "Hg5 mi
1:00 AM77 °FPartly cloudy.9 mph89%29.89 "Hg5 mi
12:30 AM77 °FPartly cloudy.8 mph89%29.92 "Hg5 mi
12:00 AM77 °FPartly cloudy.10 mph89%29.95 "Hg5 mi
Weather by CustomWeather, © 2014

See weather overviewHow to use our weather pages